,,PA_Meas_PMT16A,,PR_Meas_QMR101_102,,RH_Meas_QMH101,,SR_Meas_QMS101,,TA_Meas_QMH101,,GenWind,,GenWind,
time,status,PA,status,PR,status,RH,status,SR,status,TA,status,DirAvg,status,SpdAvg,
2013-02-18, 00:00:04,VALID,916.702,VALID,0,VALID,96.299,VALID,0,VALID,19.4132,VALID,339,VALID,0,
2013-02-18, 00:01:04,VALID,916.715,VALID,0,VALID,96.2914,VALID,0,VALID,19.3923,VALID,339,VALID,0,
2013-02-18, 00:02:04,VALID,916.731,VALID,0,VALID,96.2914,VALID,0,VALID,19.4118,VALID,339,VALID,0,
2013-02-18, 00:03:04,VALID,916.704,VALID,0,VALID,96.2837,VALID,0,VALID,19.4118,VALID,339,VALID,0,
2013-02-18, 00:04:04,VALID,916.697,VALID,0,VALID,96.2609,VALID,0,VALID,19.3908,VALID,339,VALID,0,
2013-02-18, 00:05:04,VALID,916.685,VALID,0,VALID,96.2914,VALID,0,VALID,19.4118,VALID,339,VALID,0,
2013-02-18, 00:06:04,VALID,916.706,VALID,0,VALID,96.2685,VALID,0,VALID,19.4118,VALID,339,VALID,0,
2013-02-18, 00:07:04,VALID,916.734,VALID,0,VALID,96.238,VALID,0,VALID,19.3713,VALID,339,VALID,0,
2013-02-18, 00:08:04,VALID,916.77,VALID,0,VALID,96.238,VALID,0,VALID,19.4118,VALID,339,VALID,0,
2013-02-18, 00:09:04,VALID,916.757,VALID,0,VALID,96.238,VALID,0,VALID,19.3503,VALID,339,VALID,0,
2013-02-18, 00:10:04,VALID,916.773,VALID,0,VALID,96.2533,VALID,0,VALID,19.4732,VALID,339,VALID,0,
2013-02-18, 00:11:04,VALID,916.76,VALID,0,VALID,96.2151,VALID,0,VALID,19.4508,VALID,339,VALID,0,
2013-02-18, 00:12:04,VALID,916.769,VALID,0,VALID,96.238,VALID,0,VALID,19.4883,VALID,323,VALID,0,
2013-02-18, 00:13:04,VALID,916.781,VALID,0,VALID,96.2304,VALID,0,VALID,19.5078,VALID,323,VALID,0,
2013-02-18, 00:14:04,VALID,916.771,VALID,0,VALID,96.2304,VALID,0,VALID,19.5273,VALID,323,VALID,0,
2013-02-18, 00:15:04,VALID,916.757,VALID,0,VALID,96.2151,VALID,0,VALID,19.5483,VALID,323,VALID,0,
2013-02-18, 00:16:04,VALID,916.739,VALID,0,VALID,96.2685,VALID,0,VALID,19.5483,VALID,323,VALID,0,
2013-02-18, 00:17:04,VALID,916.685,VALID,0,VALID,96.2837,VALID,0,VALID,19.5468,VALID,323,VALID,0,
2013-02-18, 00:18:04,VALID,916.657,VALID,0,VALID,96.299,VALID,0,VALID,19.5678,VALID,323,VALID,0,
2013-02-18, 00:19:04,VALID,916.646,VALID,0,VALID,96.2914,VALID,0,VALID,19.5468,VALID,323,VALID,0,
2013-02-18, 00:20:04,VALID,916.606,VALID,0,VALID,96.299,VALID,0,VALID,19.5678,VALID,323,VALID,0,
2013-02-18, 00:21:05,VALID,916.611,VALID,0,VALID,96.3142,VALID,0,VALID,19.5663,VALID,323,VALID,0,
2013-02-18, 00:22:05,VALID,916.588,VALID,0,VALID,96.3295,VALID,0,VALID,19.5468,VALID,323,VALID,0,
2013-02-18, 00:23:05,VALID,916.582,VALID,0,VALID,96.3447,VALID,0,VALID,19.5468,VALID,323,VALID,0,
2013-02-18, 00:24:05,VALID,916.578,VALID,0,VALID,96.3371,VALID,0,VALID,19.5678,VALID,323,VALID,0,
2013-02-18, 00:25:05,VALID,916.559,VALID,0,VALID,96.3981,VALID,0,VALID,19.5873,VALID,323,VALID,0,
2013-02-18, 00:26:05,VALID,916.545,VALID,0,VALID,96.3981,VALID,0,VALID,19.5873,VALID,323,VALID,0,
2013-02-18, 00:27:05,VALID,916.539,VALID,0,VALID,96.4057,VALID,0,VALID,19.5873,VALID,323,VALID,0,
2013-02-18, 00:28:05,VALID,916.536,VALID,0,VALID,96.4133,VALID,0,VALID,19.6068,VALID,323,VALID,0,
2013-02-18, 00:29:05,VALID,916.538,VALID,0,VALID,96.4057,VALID,0,VALID,19.5663,VALID,323,VALID,0,
2013-02-18, 00:30:05,VALID,916.506,VALID,0,VALID,96.4133,VALID,0,VALID,19.6068,VALID,323,VALID,0,
2013-02-18, 00:31:05,VALID,916.454,VALID,0,VALID,96.421,VALID,0,VALID,19.5858,VALID,323,VALID,0,
2013-02-18, 00:32:05,VALID,916.478,VALID,0,VALID,96.4438,VALID,0,VALID,19.5858,VALID,323,VALID,0,
2013-02-18, 00:33:05,VALID,916.444,VALID,0,VALID,96.4591,VALID,0,VALID,19.6068,VALID,323,VALID,0,
2013-02-18, 00:34:05,VALID,916.44,VALID,0,VALID,96.4743,VALID,0,VALID,19.6068,VALID,323,VALID,0,
2013-02-18, 00:35:05,VALID,916.425,VALID,0,VALID,96.4743,VALID,0,VALID,19.5873,VALID,323,VALID,0,
2013-02-18, 00:36:05,VALID,916.424,VALID,0,VALID,96.4133,VALID,0,VALID,19.5483,VALID,323,VALID,0,
2013-02-18, 00:37:05,VALID,916.395,VALID,0,VALID,96.3981,VALID,0,VALID,19.5288,VALID,323,VALID,0,
2013-02-18, 00:38:05,VALID,916.386,VALID,0,VALID,96.3981,VALID,0,VALID,19.4883,VALID,323,VALID,0,
2013-02-18, 00:39:05,VALID,916.385,VALID,0,VALID,96.3676,VALID,0,VALID,19.4703,VALID,323,VALID,0,
2013-02-18, 00:40:05,VALID,916.365,VALID,0,VALID,96.3752,VALID,0,VALID,19.4493,VALID,347,VALID,0,
2013-02-18, 00:41:05,VALID,916.352,VALID,0,VALID,96.3371,VALID,0,VALID,19.4508,VALID,352,VALID,0,
2013-02-18, 00:42:05,VALID,916.376,VALID,0,VALID,96.3142,VALID,0,VALID,19.4103,VALID,352,VALID,0,
2013-02-18, 00:43:05,VALID,916.37,VALID,0,VALID,96.3219,VALID,0,VALID,19.4103,VALID,352,VALID,0,
2013-02-18, 00:44:05,VALID,916.383,VALID,0,VALID,96.299,VALID,0,VALID,19.3908,VALID,352,VALID,0,
2013-02-18, 00:45:05,VALID,916.386,VALID,0,VALID,96.2914,VALID,0,VALID,19.4103,VALID,352,VALID,0,
2013-02-18, 00:46:05,VALID,916.386,VALID,0,VALID,96.299,VALID,0,VALID,19.4103,VALID,352,VALID,0,
2013-02-18, 00:47:05,VALID,916.433,VALID,0,VALID,96.2837,VALID,0,VALID,19.4298,VALID,352,VALID,0,
2013-02-18, 00:48:05,VALID,916.401,VALID,0,VALID,96.2609,VALID,0,VALID,19.4313,VALID,352,VALID,0,
2013-02-18, 00:49:05,VALID,916.389,VALID,0,VALID,96.2304,VALID,0,VALID,19.3908,VALID,352,VALID,0,
2013-02-18, 00:50:05,VALID,916.382,VALID,0,VALID,96.0779,VALID,0,VALID,19.3923,VALID,352,VALID,0,
2013-02-18, 00:51:05,VALID,916.405,VALID,0,VALID,95.9941,VALID,0,VALID,19.3338,VALID,352,VALID,0,
2013-02-18, 00:52:05,VALID,916.391,VALID,0,VALID,95.9864,VALID,0,VALID,19.2933,VALID,352,VALID,0,
2013-02-18, 00:53:05,VALID,916.397,VALID,0,VALID,95.9864,VALID,0,VALID,19.3157,VALID,352,VALID,0,
2013-02-18, 00:54:05,VALID,916.395,VALID,0,VALID,95.9788,VALID,0,VALID,19.2738,VALID,352,VALID,0,
2013-02-18, 00:55:05,VALID,916.4,VALID,0,VALID,96.0093,VALID,0,VALID,19.2738,VALID,352,VALID,0,
2013-02-18, 00:56:05,VALID,916.356,VALID,0,VALID,96.0093,VALID,0,VALID,19.2738,VALID,352,VALID,0,
2013-02-18, 00:57:05,VALID,916.349,VALID,0,VALID,95.9712,VALID,0,VALID,19.3143,VALID,352,VALID,0,
2013-02-18, 00:58:05,VALID,916.313,VALID,0,VALID,95.9712,VALID,0,VALID,19.2753,VALID,352,VALID,0,
2013-02-18, 00:59:05,VALID,916.281,VALID,0,VALID,95.8492,VALID,0,VALID,19.2348,VALID,352,VALID,0,
2013-02-18, 01:00:05,VALID,916.255,VALID,0,VALID,95.895,VALID,0,VALID,19.1973,VALID,352,VALID,0,
2013-02-18, 01:01:05,VALID,916.274,VALID,0,VALID,95.8721,VALID,0,VALID,19.1973,VALID,352,VALID,0,
2013-02-18, 01:02:05,VALID,916.255,VALID,0,VALID,96.0017,VALID,0,VALID,19.2168,VALID,352,VALID,0,
2013-02-18, 01:03:05,VALID,916.218,VALID,0,VALID,96.0779,VALID,0,VALID,19.2348,VALID,352,VALID,0,
2013-02-18, 01:04:05,VALID,916.233,VALID,0,VALID,96.0169,VALID,0,VALID,19.2753,VALID,352,VALID,0,
2013-02-18, 01:05:05,VALID,916.191,VALID,0,VALID,96.0322,VALID,0,VALID,19.2738,VALID,352,VALID,0,
2013-02-18, 01:06:05,VALID,916.173,VALID,0,VALID,95.9636,VALID,0,VALID,19.2738,VALID,352,VALID,0,
2013-02-18, 01:07:05,VALID,916.179,VALID,0,VALID,95.9941,VALID,0,VALID,19.2738,VALID,352,VALID,0,
2013-02-18, 01:08:05,VALID,916.2,VALID,0,VALID,96.0322,VALID,0,VALID,19.3128,VALID,352,VALID,0,
2013-02-18, 01:09:05,VALID,916.202,VALID,0,VALID,95.9941,VALID,0,VALID,19.3323,VALID,352,VALID,0,
2013-02-18, 01:10:05,VALID,916.194,VALID,0,VALID,95.9407,VALID,0,VALID,19.3533,VALID,352,VALID,0,
2013-02-18, 01:11:05,VALID,916.177,VALID,0,VALID,95.9026,VALID,0,VALID,19.3518,VALID,352,VALID,0,
2013-02-18, 01:12:05,VALID,916.171,VALID,0,VALID,95.895,VALID,0,VALID,19.3518,VALID,352,VALID,0,
2013-02-18, 01:13:05,VALID,916.165,VALID,0,VALID,95.8721,VALID,0,VALID,19.3518,VALID,352,VALID,0,
2013-02-18, 01:14:05,VALID,916.187,VALID,0,VALID,95.8492,VALID,0,VALID,19.3713,VALID,352,VALID,0,
2013-02-18, 01:15:05,VALID,916.162,VALID,0,VALID,95.8568,VALID,0,VALID,19.3713,VALID,352,VALID,0,
2013-02-18, 01:16:05,VALID,916.134,VALID,0,VALID,95.7882,VALID,0,VALID,19.3713,VALID,352,VALID,0,
2013-02-18, 01:17:05,VALID,916.131,VALID,0,VALID,95.8035,VALID,0,VALID,19.4118,VALID,352,VALID,0,
2013-02-18, 01:18:05,VALID,916.099,VALID,0,VALID,95.6891,VALID,0,VALID,19.3908,VALID,352,VALID,0,
2013-02-18, 01:19:05,VALID,916.089,VALID,0,VALID,95.5976,VALID,0,VALID,19.4118,VALID,352,VALID,0,
2013-02-18, 01:20:05,VALID,916.02,VALID,0,VALID,95.4833,VALID,0,VALID,19.3518,VALID,352,VALID,0,
2013-02-18, 01:21:05,VALID,916.024,VALID,0,VALID,95.3842,VALID,0,VALID,19.3323,VALID,352,VALID,0,
2013-02-18, 01:22:05,VALID,915.966,VALID,0,VALID,95.4147,VALID,0,VALID,19.3143,VALID,352,VALID,0,
2013-02-18, 01:23:05,VALID,916.027,VALID,0,VALID,95.3766,VALID,0,VALID,19.3338,VALID,352,VALID,0,
2013-02-18, 01:24:05,VALID,916.008,VALID,0,VALID,95.3842,VALID,0,VALID,19.3728,VALID,255,VALID,0,
2013-02-18, 01:25:05,VALID,915.994,VALID,0,VALID,95.3537,VALID,0,VALID,19.4313,VALID,255,VALID,0,
2013-02-18, 01:26:05,VALID,915.962,VALID,0,VALID,95.3232,VALID,0,VALID,19.4508,VALID,255,VALID,0,
2013-02-18, 01:27:05,VALID,915.934,VALID,0,VALID,95.2165,VALID,0,VALID,19.4508,VALID,255,VALID,0,
2013-02-18, 01:28:05,VALID,915.968,VALID,0,VALID,95.1707,VALID,0,VALID,19.4508,VALID,255,VALID,0,
2013-02-18, 01:29:05,VALID,915.92,VALID,0,VALID,95.1479,VALID,0,VALID,19.4298,VALID,255,VALID,0,
2013-02-18, 01:30:05,VALID,915.922,VALID,0,VALID,95.064,VALID,0,VALID,19.4313,VALID,255,VALID,0,
2013-02-18, 01:31:05,VALID,915.911,VALID,0,VALID,95.0488,VALID,0,VALID,19.4508,VALID,255,VALID,0,
2013-02-18, 01:32:05,VALID,915.868,VALID,0,VALID,94.8658,VALID,0,VALID,19.4313,VALID,30,VALID,0,
2013-02-18, 01:33:05,VALID,915.89,VALID,0,VALID,94.8429,VALID,0,VALID,19.4118,VALID,30,VALID,0,
2013-02-18, 01:34:05,VALID,915.831,VALID,0,VALID,94.82,VALID,0,VALID,19.3908,VALID,30,VALID,0,
2013-02-18, 01:35:05,VALID,915.876,VALID,0,VALID,94.7514,VALID,0,VALID,19.3518,VALID,18,VALID,0,
2013-02-18, 01:36:05,VALID,915.879,VALID,0,VALID,94.7667,VALID,0,VALID,19.3533,VALID,18,VALID,0,
2013-02-18, 01:37:05,VALID,915.825,VALID,0,VALID,94.7514,VALID,0,VALID,19.3323,VALID,18,VALID,0,
2013-02-18, 01:38:05,VALID,915.835,VALID,0,VALID,94.7667,VALID,0,VALID,19.3338,VALID,8,VALID,0,
2013-02-18, 01:39:05,VALID,915.814,VALID,0,VALID,94.8124,VALID,0,VALID,19.3533,VALID,17,VALID,0,
2013-02-18, 01:40:05,VALID,915.809,VALID,0,VALID,94.7819,VALID,0,VALID,19.3728,VALID,17,VALID,0,
2013-02-18, 01:41:05,VALID,915.82,VALID,0,VALID,94.7972,VALID,0,VALID,19.3923,VALID,17,VALID,0,
2013-02-18, 01:42:05,VALID,915.829,VALID,0,VALID,94.8277,VALID,0,VALID,19.4118,VALID,17,VALID,0,
2013-02-18, 01:43:05,VALID,915.806,VALID,0,VALID,94.8505,VALID,0,VALID,19.4118,VALID,17,VALID,0,
2013-02-18, 01:44:05,VALID,915.805,VALID,0,VALID,94.8887,VALID,0,VALID,19.4118,VALID,17,VALID,0,
2013-02-18, 01:45:05,VALID,915.795,VALID,0,VALID,94.8734,VALID,0,VALID,19.4118,VALID,17,VALID,0,
2013-02-18, 01:46:05,VALID,915.814,VALID,0,VALID,94.9039,VALID,0,VALID,19.4313,VALID,17,VALID,0,
2013-02-18, 01:47:05,VALID,915.776,VALID,0,VALID,94.8887,VALID,0,VALID,19.4103,VALID,17,VALID,0,
2013-02-18, 01:48:05,VALID,915.749,VALID,0,VALID,94.8429,VALID,0,VALID,19.4508,VALID,17,VALID,0,
2013-02-18, 01:49:05,VALID,915.76,VALID,0,VALID,94.8429,VALID,0,VALID,19.4313,VALID,17,VALID,0,
2013-02-18, 01:50:05,VALID,915.729,VALID,0,VALID,94.8353,VALID,0,VALID,19.4313,VALID,17,VALID,0,
2013-02-18, 01:51:05,VALID,915.693,VALID,0,VALID,94.82,VALID,0,VALID,19.4118,VALID,17,VALID,0,
2013-02-18, 01:52:05,VALID,915.691,VALID,0,VALID,94.8582,VALID,0,VALID,19.3923,VALID,17,VALID,0,
2013-02-18, 01:53:05,VALID,915.645,VALID,0,VALID,94.9268,VALID,0.107441,VALID,19.3908,VALID,26,VALID,0,
2013-02-18, 01:54:05,VALID,915.653,VALID,0,VALID,94.881,VALID,0.107441,VALID,19.3908,VALID,27,VALID,0,
2013-02-18, 01:55:05,VALID,915.665,VALID,0,VALID,94.8048,VALID,0,VALID,19.3713,VALID,24,VALID,0,
2013-02-18, 01:56:05,VALID,915.649,VALID,0,VALID,94.8277,VALID,0.107441,VALID,19.3908,VALID,24,VALID,0,
2013-02-18, 01:57:05,VALID,915.622,VALID,0,VALID,94.8505,VALID,0.107441,VALID,19.4103,VALID,24,VALID,0,
2013-02-18, 01:58:05,VALID,915.62,VALID,0,VALID,94.7972,VALID,0.107441,VALID,19.4103,VALID,23,VALID,0,
2013-02-18, 01:59:05,VALID,915.573,VALID,0,VALID,94.7667,VALID,0.107441,VALID,19.4103,VALID,4,VALID,0,
2013-02-18, 02:00:05,VALID,915.536,VALID,0,VALID,94.5151,VALID,0,VALID,19.4103,VALID,7,VALID,0,
2013-02-18, 02:01:05,VALID,915.536,VALID,0,VALID,94.4236,VALID,0,VALID,19.4478,VALID,10,VALID,0,
2013-02-18, 02:02:05,VALID,915.538,VALID,0,VALID,94.233,VALID,0.107441,VALID,19.4883,VALID,10,VALID,0,
2013-02-18, 02:03:05,VALID,915.496,VALID,0,VALID,94.1721,VALID,0.107441,VALID,19.4883,VALID,10,VALID,0,
2013-02-18, 02:04:05,VALID,915.384,VALID,0,VALID,94.1644,VALID,0.107441,VALID,19.4493,VALID,33,VALID,0,
2013-02-18, 02:05:05,VALID,915.423,VALID,0,VALID,94.2407,VALID,0.107441,VALID,19.4493,VALID,51,VALID,0,
2013-02-18, 02:06:05,VALID,915.447,VALID,0,VALID,94.233,VALID,0.107441,VALID,19.4688,VALID,45,VALID,0,
2013-02-18, 02:07:05,VALID,915.43,VALID,0,VALID,94.2102,VALID,0.107441,VALID,19.4883,VALID,44,VALID,0,
2013-02-18, 02:08:05,VALID,915.465,VALID,0,VALID,94.2178,VALID,0.107441,VALID,19.4883,VALID,45,VALID,0,
2013-02-18, 02:09:05,VALID,915.469,VALID,0,VALID,94.1339,VALID,0,VALID,19.4883,VALID,19,VALID,0,
2013-02-18, 02:10:05,VALID,915.438,VALID,0,VALID,94.233,VALID,0,VALID,19.4883,VALID,19,VALID,0,
2013-02-18, 02:11:05,VALID,915.415,VALID,0,VALID,94.2635,VALID,0,VALID,19.4688,VALID,29,VALID,0,
2013-02-18, 02:12:05,VALID,915.383,VALID,0,VALID,94.2559,VALID,0,VALID,19.4088,VALID,48,VALID,0,
2013-02-18, 02:13:05,VALID,915.383,VALID,0,VALID,94.3931,VALID,0,VALID,19.4313,VALID,55,VALID,0,
2013-02-18, 02:14:05,VALID,915.422,VALID,0,VALID,94.5075,VALID,0,VALID,19.3923,VALID,55,VALID,0,
2013-02-18, 02:15:05,VALID,915.425,VALID,0,VALID,94.66,VALID,0,VALID,19.3923,VALID,55,VALID,0,
2013-02-18, 02:16:05,VALID,915.415,VALID,0,VALID,94.7286,VALID,0,VALID,19.4132,VALID,55,VALID,0,
2013-02-18, 02:17:05,VALID,915.369,VALID,0,VALID,94.6981,VALID,0,VALID,19.3713,VALID,55,VALID,0,
2013-02-18, 02:18:05,VALID,915.351,VALID,0,VALID,94.7057,VALID,0,VALID,19.4118,VALID,55,VALID,0,
2013-02-18, 02:19:05,VALID,915.298,VALID,0,VALID,94.7286,VALID,0,VALID,19.4313,VALID,48,VALID,0,
2013-02-18, 02:20:05,VALID,915.227,VALID,0,VALID,94.6905,VALID,0,VALID,19.4103,VALID,38,VALID,0,
2013-02-18, 02:21:05,VALID,915.209,VALID,0,VALID,94.6295,VALID,0,VALID,19.4103,VALID,21,VALID,0,
2013-02-18, 02:22:05,VALID,915.236,VALID,0,VALID,94.5685,VALID,0,VALID,19.4118,VALID,21,VALID,0,
2013-02-18, 02:23:05,VALID,915.228,VALID,0,VALID,94.5532,VALID,0,VALID,19.4103,VALID,21,VALID,0,
2013-02-18, 02:24:05,VALID,915.257,VALID,0,VALID,94.5456,VALID,0,VALID,19.4313,VALID,21,VALID,0,
2013-02-18, 02:25:05,VALID,915.259,VALID,0,VALID,94.5227,VALID,0,VALID,19.4508,VALID,21,VALID,0,
2013-02-18, 02:26:05,VALID,915.232,VALID,0,VALID,94.5227,VALID,0,VALID,19.4703,VALID,21,VALID,0,
2013-02-18, 02:27:05,VALID,915.186,VALID,0,VALID,94.4617,VALID,0,VALID,19.4508,VALID,21,VALID,0,
2013-02-18, 02:28:05,VALID,915.141,VALID,0,VALID,94.2559,VALID,0,VALID,19.4508,VALID,46,VALID,0,
2013-02-18, 02:29:05,VALID,915.195,VALID,0,VALID,94.1034,VALID,0,VALID,19.4508,VALID,56,VALID,0,
2013-02-18, 02:30:05,VALID,915.185,VALID,0,VALID,94.0958,VALID,0,VALID,19.4703,VALID,31,VALID,0,
2013-02-18, 02:31:05,VALID,915.168,VALID,0,VALID,93.9357,VALID,0,VALID,19.4103,VALID,34,VALID,0,
2013-02-18, 02:32:05,VALID,915.177,VALID,0,VALID,93.6842,VALID,0,VALID,19.4103,VALID,40,VALID,0,
2013-02-18, 02:33:05,VALID,915.194,VALID,0,VALID,93.5012,VALID,0,VALID,19.4898,VALID,23,VALID,0,
2013-02-18, 02:34:05,VALID,915.154,VALID,0,VALID,93.4478,VALID,0,VALID,19.5288,VALID,23,VALID,0,
2013-02-18, 02:35:05,VALID,915.125,VALID,0,VALID,93.425,VALID,0,VALID,19.5078,VALID,19,VALID,0,
2013-02-18, 02:36:05,VALID,915.12,VALID,0,VALID,92.4034,VALID,0,VALID,19.4508,VALID,298,VALID,0,
2013-02-18, 02:37:05,VALID,915.202,VALID,0,VALID,91.8774,VALID,0,VALID,19.5858,VALID,251,VALID,0,
2013-02-18, 02:38:05,VALID,915.179,VALID,0,VALID,92.1214,VALID,0,VALID,19.6443,VALID,213,VALID,0,
2013-02-18, 02:39:05,VALID,915.13,VALID,0,VALID,91.7097,VALID,0,VALID,19.6458,VALID,264,VALID,0,
2013-02-18, 02:40:05,VALID,915.15,VALID,0,VALID,92.0832,VALID,0,VALID,19.7043,VALID,264,VALID,0,
2013-02-18, 02:41:05,VALID,915.146,VALID,0,VALID,91.9765,VALID,0,VALID,19.7043,VALID,264,VALID,0,
2013-02-18, 02:42:05,VALID,915.135,VALID,0,VALID,91.9841,VALID,0,VALID,19.7043,VALID,264,VALID,0,
2013-02-18, 02:43:05,VALID,915.16,VALID,0,VALID,92.007,VALID,0,VALID,19.7043,VALID,264,VALID,0,
2013-02-18, 02:44:05,VALID,915.162,VALID,0,VALID,91.5953,VALID,0,VALID,19.6848,VALID,264,VALID,0,
2013-02-18, 02:45:05,VALID,915.203,VALID,0,VALID,91.9308,VALID,0,VALID,19.6833,VALID,264,VALID,0,
2013-02-18, 02:46:05,VALID,915.161,VALID,0,VALID,91.8088,VALID,0,VALID,19.6443,VALID,264,VALID,0,
2013-02-18, 02:47:05,VALID,915.133,VALID,0,VALID,92.0832,VALID,0,VALID,19.6248,VALID,264,VALID,0,
2013-02-18, 02:48:05,VALID,915.105,VALID,0,VALID,92.5483,VALID,0,VALID,19.5858,VALID,18,VALID,0,
2013-02-18, 02:49:05,VALID,915.1,VALID,0,VALID,92.8456,VALID,0,VALID,19.5288,VALID,58,VALID,0,
2013-02-18, 02:50:05,VALID,915.105,VALID,0,VALID,93.1963,VALID,0,VALID,19.4298,VALID,180,VALID,0,
2013-02-18, 02:51:05,VALID,915.046,VALID,0,VALID,93.3259,VALID,0,VALID,19.4118,VALID,180,VALID,0,
2013-02-18, 02:52:05,VALID,915.057,VALID,0,VALID,93.5012,VALID,0,VALID,19.3908,VALID,180,VALID,0,
2013-02-18, 02:53:05,VALID,915.027,VALID,0,VALID,93.2801,VALID,0,VALID,19.4298,VALID,11,VALID,0,
2013-02-18, 02:54:05,VALID,915.044,VALID,0,VALID,92.9981,VALID,0,VALID,19.5093,VALID,5,VALID,0,
2013-02-18, 02:55:05,VALID,914.994,VALID,0,VALID,92.9599,VALID,0,VALID,19.5288,VALID,4,VALID,0,
2013-02-18, 02:56:05,VALID,914.986,VALID,0,VALID,92.9066,VALID,0,VALID,19.5483,VALID,12,VALID,0,
2013-02-18, 02:57:05,VALID,914.962,VALID,0,VALID,92.8456,VALID,0,VALID,19.5288,VALID,12,VALID,0,
2013-02-18, 02:58:05,VALID,914.975,VALID,0,VALID,92.9142,VALID,0,VALID,19.5273,VALID,12,VALID,0,
2013-02-18, 02:59:05,VALID,914.991,VALID,0,VALID,92.8685,VALID,0,VALID,19.5468,VALID,13,VALID,0,
2013-02-18, 03:00:05,VALID,915.025,VALID,0,VALID,93.0362,VALID,0,VALID,19.5873,VALID,13,VALID,0,
2013-02-18, 03:01:05,VALID,915.051,VALID,0,VALID,92.9066,VALID,0,VALID,19.5678,VALID,230,VALID,0,
2013-02-18, 03:02:04,VALID,914.999,VALID,0,VALID,92.8456,VALID,0,VALID,19.5678,VALID,246,VALID,0,
2013-02-18, 03:03:04,VALID,915.082,VALID,0,VALID,92.5406,VALID,0,VALID,19.6263,VALID,246,VALID,0,
2013-02-18, 03:04:04,VALID,915.046,VALID,0,VALID,92.3272,VALID,0,VALID,19.6653,VALID,187,VALID,0,
2013-02-18, 03:05:04,VALID,915.027,VALID,0,VALID,92.2281,VALID,0,VALID,19.6458,VALID,196,VALID,0,
2013-02-18, 03:06:04,VALID,914.977,VALID,0,VALID,91.824,VALID,0,VALID,19.6443,VALID,195,VALID,0,
2013-02-18, 03:07:04,VALID,914.983,VALID,0,VALID,91.4124,VALID,0,VALID,19.6638,VALID,244,VALID,0,
2013-02-18, 03:08:04,VALID,914.939,VALID,0,VALID,91.0846,VALID,0,VALID,19.7238,VALID,244,VALID,0,
2013-02-18, 03:09:04,VALID,914.935,VALID,0,VALID,91.0922,VALID,0,VALID,19.7628,VALID,244,VALID,0,
2013-02-18, 03:10:04,VALID,914.933,VALID,0,VALID,91.2752,VALID,0,VALID,19.7823,VALID,244,VALID,0,
2013-02-18, 03:11:04,VALID,914.91,VALID,0,VALID,91.4429,VALID,0,VALID,19.7628,VALID,244,VALID,0,
2013-02-18, 03:12:04,VALID,914.896,VALID,0,VALID,91.481,VALID,0,VALID,19.7238,VALID,244,VALID,0,
2013-02-18, 03:13:04,VALID,914.859,VALID,0,VALID,91.6487,VALID,0,VALID,19.7043,VALID,244,VALID,0,
2013-02-18, 03:14:04,VALID,914.837,VALID,0,VALID,91.8698,VALID,0,VALID,19.6638,VALID,244,VALID,0,
2013-02-18, 03:15:04,VALID,914.843,VALID,0,VALID,92.0375,VALID,0,VALID,19.6443,VALID,244,VALID,0,
2013-02-18, 03:16:04,VALID,914.78,VALID,0,VALID,91.7402,VALID,0,VALID,19.6053,VALID,244,VALID,0,
2013-02-18, 03:17:04,VALID,914.735,VALID,0,VALID,91.8622,VALID,0,VALID,19.6248,VALID,244,VALID,0,
2013-02-18, 03:18:04,VALID,914.79,VALID,0,VALID,92.1442,VALID,0,VALID,19.6443,VALID,253,VALID,0,
2013-02-18, 03:19:04,VALID,914.794,VALID,0,VALID,92.3196,VALID,0,VALID,19.6458,VALID,245,VALID,0,
2013-02-18, 03:20:04,VALID,914.815,VALID,0,VALID,92.6931,VALID,0,VALID,19.6473,VALID,243,VALID,0,
2013-02-18, 03:21:04,VALID,914.834,VALID,0,VALID,92.9676,VALID,0,VALID,19.5678,VALID,207,VALID,0,
2013-02-18, 03:22:04,VALID,914.817,VALID,0.2,VALID,93.2801,VALID,0,VALID,19.5288,VALID,238,VALID,0,
2013-02-18, 03:23:04,VALID,914.813,VALID,0,VALID,93.4859,VALID,0,VALID,19.5303,VALID,294,VALID,0,
2013-02-18, 03:24:04,VALID,914.77,VALID,0,VALID,93.6842,VALID,0,VALID,19.4898,VALID,285,VALID,0,
2013-02-18, 03:25:04,VALID,914.768,VALID,0,VALID,93.7756,VALID,0,VALID,19.4883,VALID,281,VALID,0,
2013-02-18, 03:26:04,VALID,914.77,VALID,0,VALID,93.7909,VALID,0,VALID,19.4898,VALID,281,VALID,0,
2013-02-18, 03:27:04,VALID,914.771,VALID,0,VALID,93.7147,VALID,0,VALID,19.4703,VALID,281,VALID,0,
2013-02-18, 03:28:04,VALID,914.76,VALID,0,VALID,93.9205,VALID,0,VALID,19.4703,VALID,281,VALID,0,
2013-02-18, 03:29:04,VALID,914.772,VALID,0,VALID,94.0958,VALID,0,VALID,19.4898,VALID,281,VALID,0,
2013-02-18, 03:30:04,VALID,914.781,VALID,0,VALID,94.2788,VALID,0,VALID,19.5093,VALID,281,VALID,0,
2013-02-18, 03:31:04,VALID,914.766,VALID,0,VALID,94.2788,VALID,0,VALID,19.5108,VALID,281,VALID,0,
2013-02-18, 03:32:04,VALID,914.794,VALID,0,VALID,94.3855,VALID,0,VALID,19.4703,VALID,281,VALID,0,
2013-02-18, 03:33:04,VALID,914.784,VALID,0,VALID,94.4465,VALID,0,VALID,19.4508,VALID,281,VALID,0,
2013-02-18, 03:34:04,VALID,914.819,VALID,0,VALID,94.5304,VALID,0,VALID,19.4508,VALID,281,VALID,0,
2013-02-18, 03:35:04,VALID,914.763,VALID,0,VALID,94.5456,VALID,0,VALID,19.4523,VALID,281,VALID,0,
2013-02-18, 03:36:04,VALID,914.75,VALID,0,VALID,94.5532,VALID,0,VALID,19.3923,VALID,281,VALID,0,
2013-02-18, 03:37:04,VALID,914.803,VALID,0,VALID,94.6142,VALID,0,VALID,19.3533,VALID,18,VALID,0,
2013-02-18, 03:38:04,VALID,914.753,VALID,0,VALID,94.7286,VALID,0,VALID,19.3128,VALID,18,VALID,0,
2013-02-18, 03:39:04,VALID,914.765,VALID,0,VALID,94.8353,VALID,0,VALID,19.3143,VALID,18,VALID,0,
2013-02-18, 03:40:04,VALID,914.766,VALID,0,VALID,94.9649,VALID,0,VALID,19.3143,VALID,18,VALID,0,
2013-02-18, 03:41:04,VALID,914.745,VALID,0,VALID,95.0488,VALID,0,VALID,19.3143,VALID,18,VALID,0,
2013-02-18, 03:42:04,VALID,914.724,VALID,0,VALID,95.0716,VALID,0,VALID,19.2948,VALID,18,VALID,0,
2013-02-18, 03:43:04,VALID,914.739,VALID,0,VALID,95.0564,VALID,0,VALID,19.2753,VALID,18,VALID,0,
2013-02-18, 03:44:04,VALID,914.754,VALID,0,VALID,95.0411,VALID,0,VALID,19.2558,VALID,17,VALID,0,
2013-02-18, 03:45:04,VALID,914.743,VALID,0,VALID,95.0869,VALID,0,VALID,19.2363,VALID,6,VALID,0,
2013-02-18, 03:46:04,VALID,914.701,VALID,0.2,VALID,95.0945,VALID,0,VALID,19.2168,VALID,3,VALID,0,
2013-02-18, 03:47:04,VALID,914.69,VALID,0,VALID,95.2317,VALID,0,VALID,19.2168,VALID,13,VALID,0,
2013-02-18, 03:48:04,VALID,914.691,VALID,0,VALID,95.1326,VALID,0,VALID,19.2363,VALID,1,VALID,0,
2013-02-18, 03:49:04,VALID,914.714,VALID,0,VALID,95.0792,VALID,0,VALID,19.2168,VALID,1,VALID,0,
2013-02-18, 03:50:04,VALID,914.748,VALID,0,VALID,95.2241,VALID,0,VALID,19.2168,VALID,1,VALID,0,
2013-02-18, 03:51:04,VALID,914.71,VALID,0,VALID,95.2851,VALID,0,VALID,19.2363,VALID,277,VALID,0,
2013-02-18, 03:52:04,VALID,914.686,VALID,0,VALID,95.2775,VALID,0,VALID,19.1973,VALID,277,VALID,0,
2013-02-18, 03:53:04,VALID,914.699,VALID,0,VALID,95.3461,VALID,0,VALID,19.2153,VALID,331,VALID,0,
2013-02-18, 03:54:04,VALID,914.744,VALID,0,VALID,95.4071,VALID,0.107441,VALID,19.1958,VALID,331,VALID,0,
2013-02-18, 03:55:04,VALID,914.741,VALID,0,VALID,95.3918,VALID,0.107441,VALID,19.1763,VALID,342,VALID,0,
2013-02-18, 03:56:04,VALID,914.771,VALID,0,VALID,95.3232,VALID,0,VALID,19.1568,VALID,1,VALID,0,
2013-02-18, 03:57:04,VALID,914.768,VALID,0,VALID,95.2775,VALID,0.107441,VALID,19.1763,VALID,346,VALID,0,
2013-02-18, 03:58:04,VALID,914.774,VALID,0,VALID,95.1479,VALID,0.107441,VALID,19.1763,VALID,355,VALID,0,
2013-02-18, 03:59:04,VALID,914.825,VALID,0,VALID,94.9878,VALID,0,VALID,19.1763,VALID,350,VALID,0,